22-05-2022, 00:00:09,    260,    0.0,   10.5,   0.00,   0.00, 1014.9,   65.4, -999.0
22-05-2022, 00:00:19,    260,    0.0,   10.5,   0.00,   0.00, 1014.8,   65.5, -999.0
22-05-2022, 00:00:29,    260,    0.0,   10.5,   0.00,   0.00, 1014.9,   65.5, -999.0
22-05-2022, 00:00:39,    260,    0.0,   10.5,   0.00,   0.00, 1014.8,   65.4, -999.0
22-05-2022, 00:00:49,    260,    0.0,   10.5,   0.00,   0.00, 1014.9,   65.5, -999.0
22-05-2022, 00:00:59,    260,    0.0,   10.5,   0.00,   0.00, 1014.8,   65.4, -999.0
22-05-2022, 00:01:09,    260,    0.0,   10.4,   0.00,   0.00, 1014.8,   65.4, -999.0
22-05-2022, 00:01:19,    260,    0.0,   10.5,   0.00,   0.00, 1014.8,   65.5, -999.0
22-05-2022, 00:01:29,    260,    0.0,   10.5,   0.00,   0.00, 1014.8,   65.4, -999.0
22-05-2022, 00:01:39,    260,    0.0,   10.5,   0.00,   0.00, 1014.8,   65.5, -999.0
22-05-2022, 00:01:51,    260,    0.0,   10.5,   0.00,   0.00, 1014.8,   65.4, -999.0
22-05-2022, 00:01:59,    260,    0.0,   10.5,   0.00,   0.00, 1014.8,   65.4, -999.0
22-05-2022, 00:02:09,    260,    0.0,   10.4,   0.00,   0.00, 1014.8,   65.4, -999.0
22-05-2022, 00:02:19,    260,    0.0,   10.5,   0.00,   0.00, 1014.8,   65.4, -999.0
22-05-2022, 00:02:28,    260,    0.0,   10.5,   0.00,   0.00, 1014.8,   65.3, -999.0
22-05-2022, 00:02:39,    260,    0.0,   10.5,   0.00,   0.00, 1014.8,   65.3, -999.0
22-05-2022, 00:02:48,    260,    0.0,   10.5,   0.00,   0.00, 1014.8,   65.4, -999.0
22-05-2022, 00:02:58,    260,    0.0,   10.5,   0.00,   0.00, 1014.8,   65.4, -999.0
22-05-2022, 00:03:08,    260,    0.0,   10.5,   0.00,   0.00, 1014.8,   65.5, -999.0
22-05-2022, 00:03:18,    260,    0.0,   10.5,   0.00,   0.00, 1014.8,   65.5, -999.0
22-05-2022, 00:03:28,    260,    0.0,   10.5,   0.00,   0.00, 1014.8,   65.5, -999.0
22-05-2022, 00:03:38,    260,    0.0,   10.5,   0.00,   0.00, 1014.8,   65.6, -999.0
22-05-2022, 00:03:48,    260,    0.0,   10.5,   0.00,   0.00, 1014.8,   65.5, -999.0
22-05-2022, 00:03:58,    260,    0.0,   10.5,   0.00,   0.00, 1014.8,   65.6, -999.0
22-05-2022, 00:04:08,    260,    0.0,   10.4,   0.00,   0.00, 1014.8,   65.5, -999.0
22-05-2022, 00:04:18,    260,    0.0,   10.5,   0.00,   0.00, 1014.8,   65.4, -999.0
22-05-2022, 00:04:28,    260,    0.0,   10.5,   0.00,   0.00, 1014.8,   65.5, -999.0
22-05-2022, 00:04:38,    260,    0.0,   10.5,   0.00,   0.00, 1014.8,   65.4, -999.0
22-05-2022, 00:04:48,    260,    0.0,   10.5,   0.00,   0.00, 1014.8,   65.4, -999.0
22-05-2022, 00:04:58,    260,    0.0,   10.4,   0.00,   0.00, 1014.7,   65.5, -999.0
22-05-2022, 00:05:08,    260,    0.0,   10.5,   0.00,   0.00, 1014.8,   65.4, -999.0
22-05-2022, 00:05:18,    260,    0.0,   10.5,   0.00,   0.00, 1014.8,   65.4, -999.0
22-05-2022, 00:05:29,    261,    0.0,   10.5,   0.00,   0.00, 1014.8,   65.6, -999.0
22-05-2022, 00:05:38,    260,    0.0,   10.4,   0.00,   0.00, 1014.8,   65.6, -999.0
22-05-2022, 00:05:47,    260,    0.0,   10.5,   0.00,   0.00, 1014.8,   65.6, -999.0
22-05-2022, 00:05:57,    260,    0.0,   10.5,   0.00,   0.00, 1014.8,   65.6, -999.0
22-05-2022, 00:06:08,    260,    0.0,   10.4,   0.00,   0.00, 1014.8,   65.5, -999.0
22-05-2022, 00:06:17,    260,    0.0,   10.4,   0.00,   0.00, 1014.8,   65.4, -999.0
22-05-2022, 00:06:27,    260,    0.0,   10.5,   0.00,   0.00, 1014.8,   65.5, -999.0
22-05-2022, 00:06:37,    262,    0.0,   10.5,   0.00,   0.00, 1014.8,   65.4, -999.0
22-05-2022, 00:06:47,    260,    0.0,   10.4,   0.00,   0.00, 1014.8,   65.5, -999.0
22-05-2022, 00:06:57,    260,    0.0,   10.3,   0.00,   0.00, 1014.8,   65.6, -999.0
22-05-2022, 00:07:07,    260,    0.0,   10.3,   0.00,   0.00, 1014.8,   65.8, -999.0
22-05-2022, 00:07:17,    260,    0.0,   10.4,   0.00,   0.00, 1014.8,   65.7, -999.0
22-05-2022, 00:07:27,    261,    0.0,   10.3,   0.00,   0.00, 1014.8,   65.7, -999.0
22-05-2022, 00:07:37,    260,    0.0,   10.4,   0.00,   0.00, 1014.8,   65.7, -999.0
22-05-2022, 00:07:47,    260,    0.0,   10.4,   0.00,   0.00, 1014.8,   65.7, -999.0
22-05-2022, 00:07:57,    260,    0.0,   10.4,   0.00,   0.00, 1014.8,   65.8, -999.0
22-05-2022, 00:08:07,    260,    0.0,   10.4,   0.00,   0.00, 1014.8,   65.8, -999.0
22-05-2022, 00:08:17,    260,    0.0,   10.4,   0.00,   0.00, 1014.8,   65.7, -999.0
22-05-2022, 00:08:27,    260,    0.0,   10.4,   0.00,   0.00, 1014.8,   65.7, -999.0
22-05-2022, 00:08:37,    260,    0.0,   10.4,   0.00,   0.00, 1014.8,   65.6, -999.0
22-05-2022, 00:08:47,    260,    0.0,   10.4,   0.00,   0.00, 1014.8,   65.7, -999.0
22-05-2022, 00:08:56,    260,    0.0,   10.4,   0.00,   0.00, 1014.8,   65.8, -999.0
22-05-2022, 00:09:06,    260,    0.0,   10.3,   0.00,   0.00, 1014.8,   65.7, -999.0
22-05-2022, 00:09:17,    260,    0.0,   10.3,   0.00,   0.00, 1014.8,   65.7, -999.0
22-05-2022, 00:09:26,    260,    0.0,   10.4,   0.00,   0.00, 1014.9,   65.7, -999.0
22-05-2022, 00:09:36,    260,    0.0,   10.3,   0.00,   0.00, 1014.8,   65.7, -999.0
22-05-2022, 00:09:46,    260,    0.0,   10.4,   0.00,   0.00, 1014.8,   65.8, -999.0
22-05-2022, 00:09:56,    260,    0.0,   10.4,   0.00,   0.00, 1014.8,   65.8, -999.0
22-05-2022, 00:10:06,    260,    0.0,   10.4,   0.00,   0.00, 1014.8,   66.0, -999.0
22-05-2022, 00:10:16,    260,    0.0,   10.3,   0.00,   0.00, 1014.8,   65.9, -999.0
22-05-2022, 00:10:26,    261,    0.0,   10.3,   0.00,   0.00, 1014.8,   65.8, -999.0
22-05-2022, 00:10:36,    260,    0.0,   10.3,   0.00,   0.00, 1014.9,   65.8, -999.0
22-05-2022, 00:10:46,    260,    0.0,   10.3,   0.00,   0.00, 1014.9,   65.8, -999.0
22-05-2022, 00:10:56,    260,    0.0,   10.3,   0.00,   0.00, 1014.8,   65.8, -999.0
22-05-2022, 00:11:06,    260,    0.0,   10.3,   0.00,   0.00, 1014.9,   65.9, -999.0
22-05-2022, 00:11:16,    260,    0.0,   10.3,   0.00,   0.00, 1014.8,   65.9, -999.0
22-05-2022, 00:11:26,    260,    0.0,   10.4,   0.00,   0.00, 1014.8,   65.7, -999.0
22-05-2022, 00:11:35,    260,    0.0,   10.3,   0.00,   0.00, 1014.9,   65.8, -999.0
22-05-2022, 00:11:46,    260,    0.0,   10.3,   0.00,   0.00, 1014.8,   65.8, -999.0
22-05-2022, 00:11:56,    260,    0.0,   10.3,   0.00,   0.00, 1014.8,   66.1, -999.0
22-05-2022, 00:12:05,    260,    0.0,   10.3,   0.00,   0.00, 1014.8,   66.1, -999.0
22-05-2022, 00:12:15,    260,    0.0,   10.4,   0.00,   0.00, 1014.8,   66.1, -999.0
22-05-2022, 00:12:26,    260,    0.0,   10.3,   0.00,   0.00, 1014.8,   66.2, -999.0
22-05-2022, 00:12:35,    260,    0.0,   10.3,   0.00,   0.00, 1014.8,   66.1, -999.0
22-05-2022, 00:12:45,    260,    0.0,   10.3,   0.00,   0.00, 1014.8,   66.1, -999.0
22-05-2022, 00:12:55,    260,    0.0,   10.3,   0.00,   0.00, 1014.8,   66.1, -999.0
22-05-2022, 00:13:05,    260,    0.0,   10.3,   0.00,   0.00, 1014.8,   66.2, -999.0
22-05-2022, 00:13:15,    260,    0.0,   10.2,   0.00,   0.00, 1014.8,   66.2, -999.0
22-05-2022, 00:13:25,    260,    0.0,   10.2,   0.00,   0.00, 1014.7,   66.1, -999.0
22-05-2022, 00:13:35,    260,    0.0,   10.2,   0.00,   0.00, 1014.8,   66.2, -999.0
22-05-2022, 00:13:45,    260,    0.0,   10.3,   0.00,   0.00, 1014.8,   66.1, -999.0
22-05-2022, 00:13:55,    260,    0.0,   10.3,   0.00,   0.00, 1014.8,   66.4, -999.0
22-05-2022, 00:14:05,    259,    0.0,   10.2,   0.00,   0.00, 1014.8,   66.4, -999.0
22-05-2022, 00:14:15,    260,    0.0,   10.3,   0.00,   0.00, 1014.8,   66.5, -999.0
22-05-2022, 00:14:25,    260,    0.0,   10.3,   0.00,   0.00, 1014.8,   66.4, -999.0
22-05-2022, 00:14:35,    260,    0.0,   10.2,   0.00,   0.00, 1014.8,   66.5, -999.0
22-05-2022, 00:14:45,    230,    0.0,   10.2,   0.00,   0.00, 1014.8,   66.4, -999.0
22-05-2022, 00:14:55,    230,    0.0,   10.2,   0.00,   0.00, 1014.8,   66.3, -999.0
22-05-2022, 00:15:05,    230,    0.0,   10.3,   0.00,   0.00, 1014.8,   66.4, -999.0
22-05-2022, 00:15:14,    230,    0.0,   10.3,   0.00,   0.00, 1014.8,   66.4, -999.0
22-05-2022, 00:15:25,    230,    0.0,   10.2,   0.00,   0.00, 1014.8,   66.5, -999.0
22-05-2022, 00:15:35,    230,    0.0,   10.2,   0.00,   0.00, 1014.8,   66.4, -999.0
22-05-2022, 00:15:44,    230,    0.0,   10.2,   0.00,   0.00, 1014.8,   66.4, -999.0
22-05-2022, 00:15:54,    230,    0.0,   10.2,   0.00,   0.00, 1014.8,   66.4, -999.0
22-05-2022, 00:16:04,    230,    0.0,   10.3,   0.00,   0.00, 1014.8,   66.4, -999.0
22-05-2022, 00:16:14,    230,    0.0,   10.2,   0.00,   0.00, 1014.7,   66.4, -999.0
22-05-2022, 00:16:24,    230,    0.0,   10.2,   0.00,   0.00, 1014.8,   66.3, -999.0
22-05-2022, 00:16:34,    230,    0.0,   10.2,   0.00,   0.00, 1014.8,   66.5, -999.0
22-05-2022, 00:16:44,    230,    0.0,   10.2,   0.00,   0.00, 1014.8,   66.4, -999.0
22-05-2022, 00:16:54,    230,    0.0,   10.2,   0.00,   0.00, 1014.7,   66.4, -999.0
22-05-2022, 00:17:04,    230,    0.0,   10.2,   0.00,   0.00, 1014.8,   66.6, -999.0
22-05-2022, 00:17:14,    229,    0.0,   10.3,   0.00,   0.00, 1014.8,   66.6, -999.0
22-05-2022, 00:17:24,    230,    0.0,   10.2,   0.00,   0.00, 1014.8,   66.6, -999.0
22-05-2022, 00:17:34,    230,    0.0,   10.2,   0.00,   0.00, 1014.8,   66.5, -999.0
22-05-2022, 00:17:44,    230,    0.0,   10.3,   0.00,   0.00, 1014.8,   66.5, -999.0
22-05-2022, 00:17:54,    229,    0.0,   10.2,   0.00,   0.00, 1014.8,   66.6, -999.0
22-05-2022, 00:18:04,    230,    0.0,   10.2,   0.00,   0.00, 1014.8,   66.5, -999.0
22-05-2022, 00:18:14,    230,    0.0,   10.2,   0.00,   0.00, 1014.8,   66.5, -999.0
22-05-2022, 00:18:23,    230,    0.0,   10.2,   0.00,   0.00, 1014.8,   66.6, -999.0
22-05-2022, 00:18:34,    230,    0.0,   10.2,   0.00,   0.00, 1014.8,   66.6, -999.0
22-05-2022, 00:18:43,    230,    0.0,   10.2,   0.00,   0.00, 1014.8,   66.7, -999.0
22-05-2022, 00:18:53,    230,    0.0,   10.2,   0.00,   0.00, 1014.8,   66.5, -999.0
22-05-2022, 00:19:03,    230,    0.0,   10.3,   0.00,   0.00, 1014.8,   66.6, -999.0
22-05-2022, 00:19:13,    229,    0.0,   10.3,   0.00,   0.00, 1014.8,   66.6, -999.0
22-05-2022, 00:19:23,    230,    0.0,   10.2,   0.00,   0.00, 1014.8,   66.6, -999.0
22-05-2022, 00:19:33,    230,    0.0,   10.2,   0.00,   0.00, 1014.8,   66.5, -999.0
22-05-2022, 00:19:43,    230,    0.0,   10.2,   0.00,   0.00, 1014.8,   66.5, -999.0
22-05-2022, 00:19:53,    230,    0.0,   10.2,   0.00,   0.00, 1014.8,   66.5, -999.0
22-05-2022, 00:20:03,    230,    0.0,   10.2,   0.00,   0.00, 1014.8,   66.6, -999.0
22-05-2022, 00:20:13,    229,    0.0,   10.2,   0.00,   0.00, 1014.8,   66.4, -999.0
22-05-2022, 00:20:23,    230,    0.0,   10.2,   0.00,   0.00, 1014.8,   66.5, -999.0
22-05-2022, 00:20:33,    230,    0.0,   10.2,   0.00,   0.00, 1014.8,   66.5, -999.0
22-05-2022, 00:20:43,    230,    0.0,   10.2,   0.00,   0.00, 1014.8,   66.6, -999.0
22-05-2022, 00:20:53,    230,    0.0,   10.1,   0.00,   0.00, 1014.7,   66.6, -999.0
22-05-2022, 00:21:03,    230,    0.0,   10.1,   0.00,   0.00, 1014.7,   66.6, -999.0
22-05-2022, 00:21:13,    230,    0.0,   10.2,   0.00,   0.00, 1014.7,   66.6, -999.0
22-05-2022, 00:21:22,    230,    0.0,   10.2,   0.00,   0.00, 1014.7,   66.5, -999.0
22-05-2022, 00:21:32,    230,    0.0,   10.2,   0.00,   0.00, 1014.7,   66.7, -999.0
22-05-2022, 00:21:43,    230,    0.0,   10.2,   0.00,   0.00, 1014.7,   66.7, -999.0
22-05-2022, 00:21:52,    230,    0.0,   10.2,   0.00,   0.00, 1014.7,   66.7, -999.0
22-05-2022, 00:22:02,    230,    0.0,   10.2,   0.00,   0.00, 1014.7,   66.6, -999.0
22-05-2022, 00:22:13,    229,    0.0,   10.2,   0.00,   0.00, 1014.7,   66.7, -999.0
22-05-2022, 00:22:22,    230,    0.0,   10.2,   0.00,   0.00, 1014.7,   66.7, -999.0
22-05-2022, 00:22:32,    230,    0.0,   10.2,   0.00,   0.00, 1014.7,   66.6, -999.0
22-05-2022, 00:22:42,    230,    0.0,   10.2,   0.00,   0.00, 1014.7,   66.7, -999.0
22-05-2022, 00:22:52,    230,    0.0,   10.2,   0.00,   0.00, 1014.7,   66.6, -999.0
22-05-2022, 00:23:02,    230,    0.0,   10.2,   0.00,   0.00, 1014.7,   66.7, -999.0
22-05-2022, 00:23:12,    230,    0.0,   10.2,   0.00,   0.00, 1014.7,   66.6, -999.0
22-05-2022, 00:23:22,    230,    0.0,   10.2,   0.00,   0.00, 1014.7,   66.6, -999.0
22-05-2022, 00:23:32,    230,    0.0,   10.3,   0.00,   0.00, 1014.7,   66.7, -999.0
22-05-2022, 00:23:42,    230,    0.0,   10.2,   0.00,   0.00, 1014.7,   66.8, -999.0
22-05-2022, 00:23:52,    230,    0.0,   10.2,   0.00,   0.00, 1014.7,   66.7, -999.0
22-05-2022, 00:24:02,    230,    0.0,   10.3,   0.00,   0.00, 1014.7,   66.8, -999.0
22-05-2022, 00:24:12,    229,    0.0,   10.2,   0.00,   0.00, 1014.7,   66.7, -999.0
22-05-2022, 00:24:22,    229,    0.0,   10.2,   0.00,   0.00, 1014.7,   66.5, -999.0
22-05-2022, 00:24:31,    229,    0.0,   10.2,   0.00,   0.00, 1014.7,   66.4, -999.0
22-05-2022, 00:24:42,    230,    0.0,   10.2,   0.00,   0.00, 1014.7,   66.4, -999.0
22-05-2022, 00:24:52,    230,    0.0,   10.2,   0.00,   0.00, 1014.7,   66.5, -999.0
22-05-2022, 00:25:01,    230,    0.0,   10.1,   0.00,   0.00, 1014.7,   66.6, -999.0
22-05-2022, 00:25:11,    230,    0.0,   10.2,   0.00,   0.00, 1014.7,   66.5, -999.0
22-05-2022, 00:25:22,    230,    0.0,   10.2,   0.00,   0.00, 1014.7,   66.5, -999.0
22-05-2022, 00:25:31,    230,    0.0,   10.0,   0.00,   0.00, 1014.7,   66.7, -999.0
22-05-2022, 00:25:41,    230,    0.0,   10.1,   0.00,   0.00, 1014.7,   66.7, -999.0
22-05-2022, 00:25:51,    230,    0.0,   10.1,   0.00,   0.00, 1014.7,   66.6, -999.0
22-05-2022, 00:26:01,    230,    0.0,   10.1,   0.00,   0.00, 1014.7,   66.7, -999.0
22-05-2022, 00:26:11,    230,    0.0,   10.1,   0.00,   0.00, 1014.7,   66.8, -999.0
22-05-2022, 00:26:21,    229,    0.0,   10.0,   0.00,   0.00, 1014.7,   66.7, -999.0
22-05-2022, 00:26:31,    230,    0.0,   10.1,   0.00,   0.00, 1014.7,   66.9, -999.0
22-05-2022, 00:26:41,    230,    0.0,   10.2,   0.00,   0.00, 1014.7,   66.8, -999.0
22-05-2022, 00:26:51,    230,    0.0,   10.1,   0.00,   0.00, 1014.7,   66.9, -999.0
22-05-2022, 00:27:01,    230,    0.0,   10.1,   0.00,   0.00, 1014.7,   66.9, -999.0
22-05-2022, 00:27:11,    230,    0.0,   10.1,   0.00,   0.00, 1014.7,   66.9, -999.0
22-05-2022, 00:27:21,    229,    0.0,   10.0,   0.00,   0.00, 1014.7,   66.9, -999.0
22-05-2022, 00:27:31,    229,    0.0,   10.0,   0.00,   0.00, 1014.7,   66.9, -999.0
22-05-2022, 00:27:40,    230,    0.0,   10.0,   0.00,   0.00, 1014.7,   67.0, -999.0
22-05-2022, 00:27:51,    229,    0.0,   10.0,   0.00,   0.00, 1014.7,   67.1, -999.0
22-05-2022, 00:28:01,    230,    0.0,   10.0,   0.00,   0.00, 1014.7,   67.2, -999.0
22-05-2022, 00:28:10,    229,    0.0,   10.0,   0.00,   0.00, 1014.7,   67.3, -999.0
22-05-2022, 00:28:20,    229,    0.0,   10.0,   0.00,   0.00, 1014.7,   67.4, -999.0
22-05-2022, 00:28:31,    229,    0.0,    9.9,   0.00,   0.00, 1014.7,   67.4, -999.0
22-05-2022, 00:28:40,    230,    0.0,    9.9,   0.00,   0.00, 1014.7,   67.3, -999.0
22-05-2022, 00:28:50,    229,    0.0,   10.0,   0.00,   0.00, 1014.7,   67.5, -999.0
22-05-2022, 00:29:00,    230,    0.0,   10.0,   0.00,   0.00, 1014.7,   67.5, -999.0
22-05-2022, 00:29:10,    229,    0.0,    9.9,   0.00,   0.00, 1014.7,   67.5, -999.0
22-05-2022, 00:29:20,    229,    0.0,    9.8,   0.00,   0.00, 1014.7,   67.6, -999.0
22-05-2022, 00:29:30,    230,    0.0,    9.9,   0.00,   0.00, 1014.7,   67.5, -999.0
22-05-2022, 00:29:40,    230,    0.0,    9.9,   0.00,   0.00, 1014.7,   67.6, -999.0
22-05-2022, 00:29:50,    229,    0.0,    9.9,   0.00,   0.00, 1014.7,   67.5, -999.0
22-05-2022, 00:30:00,    230,    0.0,    9.9,   0.00,   0.00, 1014.7,   67.6, -999.0
22-05-2022, 00:30:10,    230,    0.0,    9.9,   0.00,   0.00, 1014.7,   67.5, -999.0
22-05-2022, 00:30:20,    230,    0.0,    9.9,   0.00,   0.00, 1014.7,   67.5, -999.0
22-05-2022, 00:30:30,    230,    0.0,    9.9,   0.00,   0.00, 1014.7,   67.5, -999.0
22-05-2022, 00:30:40,    230,    0.0,    9.8,   0.00,   0.00, 1014.7,   67.7, -999.0
22-05-2022, 00:30:49,    229,    0.0,    9.8,   0.00,   0.00, 1014.7,   67.7, -999.0
22-05-2022, 00:31:00,    230,    0.0,    9.8,   0.00,   0.00, 1014.7,   67.7, -999.0
22-05-2022, 00:31:10,    229,    0.0,    9.8,   0.00,   0.00, 1014.7,   67.7, -999.0
22-05-2022, 00:31:19,    229,    0.0,    9.9,   0.00,   0.00, 1014.7,   67.9, -999.0
22-05-2022, 00:31:29,    229,    0.0,    9.9,   0.00,   0.00, 1014.7,   67.9, -999.0
22-05-2022, 00:31:39,    229,    0.0,    9.9,   0.00,   0.00, 1014.7,   68.0, -999.0
22-05-2022, 00:31:49,    229,    0.0,    9.9,   0.00,   0.00, 1014.7,   68.0, -999.0
22-05-2022, 00:31:59,    229,    0.0,    9.9,   0.00,   0.00, 1014.6,   68.0, -999.0
22-05-2022, 00:32:09,    229,    0.0,    9.9,   0.00,   0.00, 1014.7,   67.8, -999.0
22-05-2022, 00:32:19,    229,    0.0,    9.9,   0.00,   0.00, 1014.7,   67.9, -999.0
22-05-2022, 00:32:29,    229,    0.0,    9.9,   0.00,   0.00, 1014.7,   67.9, -999.0
22-05-2022, 00:32:39,    229,    0.0,    9.9,   0.00,   0.00, 1014.7,   68.0, -999.0
22-05-2022, 00:32:49,    229,    0.0,    9.9,   0.00,   0.00, 1014.7,   68.0, -999.0
22-05-2022, 00:32:59,    229,    0.0,    9.9,   0.00,   0.00, 1014.7,   68.0, -999.0
22-05-2022, 00:33:09,    229,    0.0,    9.9,   0.00,   0.00, 1014.6,   67.9, -999.0
22-05-2022, 00:33:19,    229,    0.0,    9.9,   0.00,   0.00, 1014.7,   67.9, -999.0
22-05-2022, 00:33:29,    229,    0.0,    9.9,   0.00,   0.00, 1014.7,   68.0, -999.0
22-05-2022, 00:33:39,    229,    0.0,   10.0,   0.00,   0.00, 1014.7,   68.0, -999.0
22-05-2022, 00:33:49,    229,    0.0,   10.0,   0.00,   0.00, 1014.7,   68.1, -999.0
22-05-2022, 00:33:59,    229,    0.0,    9.9,   0.00,   0.00, 1014.7,   68.0, -999.0
22-05-2022, 00:34:09,    229,    0.0,   10.0,   0.00,   0.00, 1014.6,   68.0, -999.0
22-05-2022, 00:34:19,    229,    0.0,   10.0,   0.00,   0.00, 1014.7,   68.0, -999.0
22-05-2022, 00:34:28,    229,    0.0,   10.0,   0.00,   0.00, 1014.7,   67.9, -999.0
22-05-2022, 00:34:39,    229,    0.0,   10.0,   0.00,   0.00, 1014.7,   67.9, -999.0
22-05-2022, 00:34:48,    229,    0.0,    9.9,   0.00,   0.00, 1014.6,   67.9, -999.0
22-05-2022, 00:34:58,    229,    0.0,   10.0,   0.00,   0.00, 1014.7,   67.9, -999.0
22-05-2022, 00:35:08,    229,    0.0,    9.9,   0.00,   0.00, 1014.7,   67.8, -999.0
22-05-2022, 00:35:18,    229,    0.0,    9.9,   0.00,   0.00, 1014.7,   67.9, -999.0
22-05-2022, 00:35:28,    229,    0.0,   10.0,   0.00,   0.00, 1014.7,   67.9, -999.0
22-05-2022, 00:35:38,    229,    0.0,    9.9,   0.00,   0.00, 1014.7,   67.9, -999.0
22-05-2022, 00:35:48,    229,    0.0,   10.0,   0.00,   0.00, 1014.7,   67.8, -999.0
22-05-2022, 00:36:00,    229,    0.0,   10.0,   0.00,   0.00, 1014.7,   67.8, -999.0
22-05-2022, 00:36:08,    229,    0.0,    9.9,   0.00,   0.00, 1014.7,   67.9, -999.0
22-05-2022, 00:36:18,    229,    0.0,    9.9,   0.00,   0.00, 1014.7,   68.0, -999.0
22-05-2022, 00:36:28,    229,    0.0,   10.0,   0.00,   0.00, 1014.7,   67.9, -999.0
22-05-2022, 00:36:38,    229,    0.0,    9.9,   0.00,   0.00, 1014.7,   67.8, -999.0
22-05-2022, 00:36:48,    229,    0.0,    9.9,   0.00,   0.00, 1014.7,   67.9, -999.0
22-05-2022, 00:36:58,    229,    0.0,    9.9,   0.00,   0.00, 1014.7,   67.9, -999.0
22-05-2022, 00:37:08,    229,    0.0,    9.9,   0.00,   0.00, 1014.7,   67.9, -999.0
22-05-2022, 00:37:18,    229,    0.0,    9.9,   0.00,   0.00, 1014.7,   67.8, -999.0
22-05-2022, 00:37:28,    229,    0.0,    9.9,   0.00,   0.00, 1014.7,   67.9, -999.0
22-05-2022, 00:37:37,    229,    0.0,    9.9,   0.00,   0.00, 1014.7,   68.0, -999.0
22-05-2022, 00:37:48,    229,    0.0,    9.9,   0.00,   0.00, 1014.7,   68.0, -999.0
22-05-2022, 00:37:57,    229,    0.0,    9.8,   0.00,   0.00, 1014.7,   68.0, -999.0
22-05-2022, 00:38:07,    229,    0.0,    9.9,   0.00,   0.00, 1014.7,   68.1, -999.0
22-05-2022, 00:38:17,    229,    0.0,    9.9,   0.00,   0.00, 1014.7,   68.2, -999.0
22-05-2022, 00:38:27,    229,    0.0,   10.0,   0.00,   0.00, 1014.7,   68.2, -999.0
22-05-2022, 00:38:37,    229,    0.0,    9.9,   0.00,   0.00, 1014.7,   68.2, -999.0
22-05-2022, 00:38:47,    229,    0.0,    9.9,   0.00,   0.00, 1014.7,   68.2, -999.0
22-05-2022, 00:38:57,    229,    0.0,    9.9,   0.00,   0.00, 1014.7,   68.2, -999.0
22-05-2022, 00:39:07,    229,    0.0,    9.9,   0.00,   0.00, 1014.7,   68.3, -999.0
22-05-2022, 00:39:17,    229,    0.0,    9.8,   0.00,   0.00, 1014.7,   68.3, -999.0
22-05-2022, 00:39:27,    230,    0.0,    9.9,   0.00,   0.00, 1014.7,   68.3, -999.0
22-05-2022, 00:39:37,    229,    0.0,    9.9,   0.00,   0.00, 1014.7,   68.3, -999.0
22-05-2022, 00:39:47,    229,    0.0,    9.9,   0.00,   0.00, 1014.7,   68.2, -999.0
22-05-2022, 00:39:57,    229,    0.0,    9.9,   0.00,   0.00, 1014.7,   68.3, -999.0
22-05-2022, 00:40:07,    229,    0.0,   10.0,   0.00,   0.00, 1014.7,   68.3, -999.0
22-05-2022, 00:40:17,    229,    0.0,    9.9,   0.00,   0.00, 1014.7,   68.3, -999.0
22-05-2022, 00:40:27,    229,    0.0,    9.9,   0.00,   0.00, 1014.7,   68.4, -999.0
22-05-2022, 00:40:37,    229,    0.0,   10.0,   0.00,   0.00, 1014.7,   68.3, -999.0
22-05-2022, 00:40:46,    229,    0.0,    9.9,   0.00,   0.00, 1014.7,   68.2, -999.0
22-05-2022, 00:40:57,    229,    0.0,   10.0,   0.00,   0.00, 1014.7,   68.2, -999.0
22-05-2022, 00:41:06,    229,    0.0,   10.0,   0.00,   0.00, 1014.7,   68.1, -999.0
22-05-2022, 00:41:16,    229,    0.0,    9.9,   0.00,   0.00, 1014.7,   68.1, -999.0
22-05-2022, 00:41:26,    229,    0.0,    9.9,   0.00,   0.00, 1014.7,   68.1, -999.0
22-05-2022, 00:41:36,    229,    0.0,    9.9,   0.00,   0.00, 1014.7,   68.1, -999.0
22-05-2022, 00:41:46,    229,    0.0,    9.9,   0.00,   0.00, 1014.7,   68.1, -999.0
22-05-2022, 00:41:56,    229,    0.0,    9.9,   0.00,   0.00, 1014.7,   68.0, -999.0
22-05-2022, 00:42:06,    229,    0.0,    9.9,   0.00,   0.00, 1014.7,   68.1, -999.0
22-05-2022, 00:42:16,    229,    0.0,    9.9,   0.00,   0.00, 1014.7,   68.1, -999.0
22-05-2022, 00:42:26,    230,    0.0,    9.9,   0.00,   0.00, 1014.7,   68.2, -999.0
22-05-2022, 00:42:36,    229,    0.0,    9.9,   0.00,   0.00, 1014.7,   68.3, -999.0
22-05-2022, 00:42:46,    229,    0.0,    9.9,   0.00,   0.00, 1014.7,   68.4, -999.0
22-05-2022, 00:42:56,    229,    0.0,    9.9,   0.00,   0.00, 1014.7,   68.3, -999.0
22-05-2022, 00:43:06,    229,    0.0,    9.9,   0.00,   0.00, 1014.7,   68.3, -999.0
22-05-2022, 00:43:16,    229,    0.0,    9.9,   0.00,   0.00, 1014.7,   68.4, -999.0
22-05-2022, 00:43:26,    229,    0.0,    9.9,   0.00,   0.00, 1014.7,   68.4, -999.0
22-05-2022, 00:43:36,    229,    0.0,    9.9,   0.00,   0.00, 1014.7,   68.4, -999.0
22-05-2022, 00:43:45,    229,    0.0,    9.9,   0.00,   0.00, 1014.7,   68.4, -999.0
22-05-2022, 00:43:55,    229,    0.0,    9.9,   0.00,   0.00, 1014.7,   68.4, -999.0
22-05-2022, 00:44:06,    229,    0.0,   10.0,   0.00,   0.00, 1014.7,   68.4, -999.0
22-05-2022, 00:44:15,    229,    0.0,   10.0,   0.00,   0.00, 1014.7,   68.4, -999.0
22-05-2022, 00:44:25,    229,    0.0,   10.0,   0.00,   0.00, 1014.7,   68.4, -999.0
22-05-2022, 00:44:36,    229,    0.0,    9.9,   0.00,   0.00, 1014.7,   68.3, -999.0
22-05-2022, 00:44:45,    229,    0.0,    9.9,   0.00,   0.00, 1014.7,   68.3, -999.0
22-05-2022, 00:44:55,    229,    0.0,    9.9,   0.00,   0.00, 1014.7,   68.2, -999.0
22-05-2022, 00:45:05,    229,    0.0,    9.9,   0.00,   0.00, 1014.8,   68.2, -999.0
22-05-2022, 00:45:15,    229,    0.0,    9.9,   0.00,   0.00, 1014.7,   68.2, -999.0
22-05-2022, 00:45:25,    229,    0.0,    9.9,   0.00,   0.00, 1014.7,   68.2, -999.0
22-05-2022, 00:45:35,    229,    0.0,    9.9,   0.00,   0.00, 1014.7,   68.1, -999.0
22-05-2022, 00:45:45,    229,    0.0,    9.8,   0.00,   0.00, 1014.7,   68.0, -999.0
22-05-2022, 00:45:55,    229,    0.0,    9.9,   0.00,   0.00, 1014.7,   68.1, -999.0
22-05-2022, 00:46:05,    229,    0.0,    9.9,   0.00,   0.00, 1014.7,   68.3, -999.0
22-05-2022, 00:46:15,    229,    0.0,    9.9,   0.00,   0.00, 1014.7,   68.3, -999.0
22-05-2022, 00:46:25,    229,    0.0,    9.9,   0.00,   0.00, 1014.7,   68.4, -999.0
22-05-2022, 00:46:35,    229,    0.0,    9.9,   0.00,   0.00, 1014.7,   68.6, -999.0
22-05-2022, 00:46:45,    229,    0.0,    9.9,   0.00,   0.00, 1014.7,   68.4, -999.0